WM1R Weather Reports


time (UTC)temp
C
wind
direction
speed
KPH
gust
KPH
rain 1hr
cm
rain 24hr
cm
rain mn
cm
humidity
%
barometer
mb
20260507130027 5 289 1.6 9.7 0.00 1.47 0.00 88 1010.5
20260507124544 5 32 1.6 4.8 0.00 1.47 0.00 91 1010.5
20260507123014 5 236 1.6 4.8 0.00 1.47 0.00 90 1010.5
20260507121516 5 234 1.6 6.4 0.00 1.47 0.00 89 1010.3
20260507120022 6 247 3.2 11.3 0.00 1.47 0.00 89 1010.1
20260507114505 6 233 3.2 6.4 0.00 1.47 0.00 90 1010.0
20260507113012 5 247 3.2 8.0 0.00 1.47 0.00 92 1010.1
20260507111517 4 196 1.6 4.8 0.00 1.47 0.00 94 1010.1
20260507110028 4 233 3.2 4.8 0.00 1.47 0.00 94 1010.2
20260507104522 4 189 1.6 8.0 0.00 1.47 0.00 95 1010.2
20260507103003 4 169 0.0 8.0 0.00 1.47 0.00 96 1010.1
20260507101512 3 213 3.2 4.8 0.00 1.47 0.00 96 1009.8
20260507100023 3 234 1.6 4.8 0.00 1.47 0.00 96 1009.7
20260507094522 2 200 3.2 6.4 0.00 1.47 0.00 96 1010.0
20260507093033 2 246 1.6 3.2 0.00 1.47 0.00 95 1009.9
20260507091513 2 219 0.0 3.2 0.00 1.47 0.00 95 1010.1
20260507090013 2 219 3.2 4.8 0.00 1.47 0.00 95 1010.2
20260507084523 3 195 1.6 3.2 0.00 1.47 0.00 95 1009.9
20260507083022 3 208 1.6 3.2 0.00 1.47 0.00 94 1010.1
20260507081526 3 201 1.6 6.4 0.00 1.47 0.00 95 1010.0
20260507080012 3 202 1.6 6.4 0.00 1.47 0.00 94 1010.1
20260507074519 4 175 4.8 9.7 0.00 1.47 0.00 95 1010.0
20260507073022 4 219 1.6 9.7 0.00 1.47 0.00 95 1009.8
20260507071527 4 236 3.2 6.4 0.00 1.47 0.00 95 1009.7
20260507070031 4 188 3.2 6.4 0.00 1.47 0.00 95 1009.6
20260507064514 4 281 0.0 3.2 0.00 1.47 0.00 95 1009.7
20260507063035 4 239 3.2 6.4 0.00 1.47 0.00 96 1009.8
20260507061525 5 207 3.2 11.3 0.00 1.47 0.00 96 1009.8
20260507060037 5 204 1.6 11.3 0.00 1.47 0.00 96 1009.4
20260507054527 5 255 3.2 11.3 0.00 1.47 0.00 96 1010.2
20260507053019 5 246 6.4 14.5 0.00 1.47 0.00 96 1010.3
20260507051523 5 264 3.2 14.5 0.00 1.47 0.00 96 1010.1
20260507050033 5 252 0.0 14.5 0.00 1.47 0.00 96 1010.3
20260507044526 5 267 1.6 8.0 0.00 1.47 0.00 96 1009.8
20260507043014 5 198 1.6 11.3 0.00 1.47 0.00 96 1009.9
20260507041521 5 228 3.2 14.5 0.00 1.47 0.00 96 1009.9
20260507040026 5 348 1.6 8.0 0.00 1.47 0.00 96 1009.8
20260507034532 5 237 1.6 9.7 0.03 1.47 1.47 96 1009.7
20260507033028 5 240 3.2 9.7 0.03 1.47 1.47 96 1010.1
20260507031518 5 188 1.6 6.4 0.05 1.47 1.47 96 1010.2
20260507030023 5 289 4.8 14.5 0.05 1.47 1.47 96 1010.2
20260507024527 6 28 1.6 12.9 0.05 1.45 1.45 96 1010.3
20260507023004 6 292 3.2 12.9 0.10 1.45 1.45 96 1010.4
20260507021505 6 284 3.2 14.5 0.13 1.42 1.42 96 1010.5
20260507020010 6 196 1.6 11.3 0.15 1.42 1.42 96 1010.4
20260507014504 6 17 3.2 8.0 0.20 1.40 1.40 96 1010.3
20260507013004 6 163 1.6 16.1 0.25 1.32 1.32 95 1010.2
20260507011506 6 238 3.2 12.9 0.20 1.30 1.30 95 1010.2
20260507010003 7 289 1.6 14.5 0.18 1.27 1.27 95 1009.9
20260507004506 7 352 1.6 9.7 0.10 1.19 1.19 95 1009.6
20260507003007 7 17 1.6 14.5 0.03 1.09 1.09 95 1009.6
20260507001507 8 50 3.2 11.3 0.03 1.09 1.09 95 1009.2
20260507000004 8 238 3.2 9.7 0.10 1.09 1.09 95 1008.9
20260506234504 8 314 0.0 6.4 0.13 1.09 1.09 95 1008.5
20260506233004 8 210 0.0 4.8 0.10 1.07 1.07 95 1008.4
20260506231508 9 266 4.8 11.3 0.10 1.07 1.07 95 1008.2
20260506230007 10 287 4.8 12.9 0.03 0.99 0.99 95 1008.0
20260506224509 10 280 3.2 8.0 0.00 0.97 0.97 94 1007.9
20260506223010 11 306 0.0 4.8 0.00 0.97 0.97 95 1008.0
20260506221508 11 296 1.6 6.4 0.05 0.97 0.97 93 1007.6
20260506220017 13 324 1.6 12.9 0.33 0.97 0.97 93 1007.4
20260506214509 13 217 0.0 3.2 0.36 0.97 0.97 94 1007.2
20260506213008 13 206 1.6 16.1 0.36 0.97 0.97 94 1007.0
20260506211514 13 215 3.2 17.7 0.33 1.02 0.91 94 1007.1
20260506210012 13 213 3.2 9.7 0.05 0.81 0.64 93 1007.2
20260506204508 14 55 1.6 9.7 0.03 1.02 0.61 92 1007.2
20260506203008 14 149 1.6 14.5 0.05 1.02 0.61 92 1007.3
20260506201509 14 220 3.2 8.0 0.05 0.99 0.58 92 1007.3
20260506200015 14 194 1.6 8.0 0.08 0.99 0.58 92 1007.4
20260506194511 14 194 1.6 12.9 0.13 0.99 0.58 92 1007.6
20260506193012 14 257 1.6 16.1 0.13 0.97 0.56 92 1007.7
20260506191511 13 290 3.2 19.3 0.15 0.94 0.53 91 1007.9
20260506190006 13 178 4.8 17.7 0.18 0.91 0.51 92 1008.2
20260506184509 13 149 1.6 8.0 0.20 0.86 0.46 92 1008.5
20260506183015 13 165 3.2 12.9 0.23 0.84 0.43 90 1008.6
20260506181517 13 275 4.8 20.9 0.23 0.79 0.38 90 1008.7
20260506180018 13 212 8.0 25.7 0.23 0.74 0.33 89 1008.7
20260506174507 13 152 3.2 24.1 0.18 0.66 0.25 91 1009.0
20260506173015 13 105 3.2 20.9 0.15 0.61 0.20 92 1009.2
20260506171518 13 199 4.8 11.3 0.10 0.56 0.15 92 1009.3
20260506170015 13 78 1.6 8.0 0.05 0.51 0.10 92 1009.3
20260506164516 13 325 3.2 9.7 0.05 0.48 0.08 91 1009.5
20260506163008 13 261 1.6 11.3 0.03 0.46 0.05 89 1009.8
20260506161515 14 187 3.2 6.4 0.05 0.46 0.05 89 1009.8
20260506160019 14 69 3.2 6.4 0.05 0.46 0.05 88 1010.0
20260506154519 14 145 1.6 8.0 0.03 0.43 0.03 88 1010.4
20260506153010 14 161 1.6 8.0 0.03 0.43 0.03 86 1010.9
20260506151511 14 172 0.0 9.7 0.00 0.41 0.00 84 1011.1
20260506150018 14 213 1.6 11.3 0.00 0.41 0.00 82 1011.0
20260506144518 14 163 1.6 8.0 0.00 0.41 0.00 81 1010.7
20260506143026 14 198 1.6 9.7 0.00 0.41 0.00 81 1010.8
20260506141511 14 202 1.6 11.3 0.00 0.41 0.00 81 1010.9
20260506140020 13 274 1.6 4.8 0.00 0.41 0.00 83 1010.9
20260506134520 13 219 1.6 11.3 0.00 0.41 0.00 83 1010.8
20260506133020 13 133 4.8 14.5 0.00 0.41 0.00 84 1010.7
20260506131522 13 120 6.4 14.5 0.00 0.41 0.00 85 1011.2